Location: Smithsonian NASM Public Observatory
(38.8879°N, 77.0185°W)
Time: 00:36:20
(UTC-05:00)

Daily predictions for brighter satellites

Satellite Brightness Start Highest point End
(mag) Time Altitude Azimuth Time Altitude Azimuth Time Altitude Azimuth
CENTAUR R/B 3.1 03:53:27 71° N 03:54:21 79° NE 04:02:54 10° SE
Cosmos 1697 Rocket 3.7 04:02:00 40° ESE 04:02:20 41° ESE 04:07:34 10° NE
Cosmos 2227 Rocket 3.7 04:10:03 27° SSE 04:10:03 27° SSE 04:12:32 10° SSE
Okean O Rocket 3.6 04:08:19 10° NNE 04:10:08 23° NNE 04:10:08 23° NNE
Lacrosse 5 rocket 3.7 04:14:45 19° NE 04:14:45 19° NE 04:17:00 10° E
Cosmos 1821 Rocket 4.4 04:13:05 16° SSE 04:17:50 58° E 04:23:54 10° NNE
Cosmos 2297 Rocket 2.7 04:22:28 51° SSE 04:22:28 51° SSE 04:26:39 10° SSE
Cosmos 2298 Rocket 4.4 04:26:27 56° NNE 04:26:27 56° NNE 04:30:36 10° NNE
CZ-4B R/B 3.4 04:25:05 10° NNE 04:30:32 70° ESE 04:32:44 37° S
CZ-3 R/B 3.4 04:27:10 36° WSW 04:34:48 52° SSW 04:42:07 10° ESE
BREEZE-M DEB (TANK) 4.1 04:39:18 51° SSW 04:39:18 51° SSW 04:49:08 10° SE
Cosmos 2150 Rocket 4.0 04:43:18 63° NNW 04:43:18 63° NNW 04:47:48 10° NNE
CZ-4B DEB 4.0 04:37:53 10° N 04:43:23 79° WNW 04:44:18 62° SW
Cosmos 2082 3.6 04:48:38 63° W 04:48:55 64° WSW 04:54:34 10° S
Cosmos 1000 Rocket 4.3 04:43:56 10° N 04:50:11 77° W 04:56:21 10° S
Cosmos 2278 3.9 04:51:08 49° NW 04:51:08 49° NW 04:56:21 10° NNE
IDEFIX/ARIANE 42P 3.7 04:46:56 10° NNE 04:51:54 42° E 04:56:48 10° S
Cosmos 2239 Rocket 4.3 04:49:02 13° SSW 04:54:31 73° W 05:00:41 10° N
COSMOS 2455 4.3 04:52:47 10° NNW 04:58:17 35° NE 05:03:44 10° ESE
CZ-2C R/B 4.2 04:53:48 10° NNE 04:58:24 34° E 05:03:03 10° SSE
PAYLOAD B 4.2 04:53:10 10° N 04:58:32 56° WNW 04:59:33 49° WSW
Cosmos 1933 4.2 04:57:43 10° S 05:01:41 52° E 05:05:38 10° NNE
Cosmos 1605 Rocket 4.3 04:57:05 10° S 05:03:08 65° E 05:09:10 10° NNE
Cosmos 1862 3.3 05:00:10 10° N 05:04:10 81° E 05:08:09 10° S
Okean-O 3.8 05:01:13 10° NNE 05:05:27 43° E 05:09:39 10° S
CZ-4B R/B 4.4 05:08:03 10° N 05:11:58 44° WNW 05:11:58 44° WNW
Cosmos 1980 Rocket 2.1 05:09:28 11° SSW 05:15:02 84° WNW 05:20:44 10° NNE
SJ 16-02 1.3 05:11:27 10° SSW 05:15:47 88° ESE 05:20:14 10° NNE
COSMO-SKYMED 1 2.8 05:14:50 10° SSE 05:19:08 72° ENE 05:23:28 10° N
Cosmos 1656 4.5 05:20:56 28° WNW 05:21:04 28° WNW 05:25:43 10° N
Cosmos 158 Rocket 3.8 05:16:32 10° NNW 05:21:36 88° WSW 05:26:46 10° SSE
Aureole 1 Rocket 4.1 05:15:17 10° NNW 05:22:35 58° WSW 05:28:13 10° S
Meteor 2-10 Rocket 3.7 05:20:58 18° SW 05:24:23 45° WNW 05:29:11 10° N
IRS-1C Rocket 4.4 05:26:42 10° N 05:31:38 41° WNW 05:36:32 10° SW
Cosmos 1125 Rocket 3.4 05:26:54 10° SSW 05:32:05 77° WNW 05:37:19 10° NNE
Feng Yun 1-1 Rocket 4.2 05:27:10 10° NNE 05:32:44 86° WNW 05:38:26 10° SSW
ATLAS 5 CENTAUR R/B 2.7 05:30:03 10° S 05:34:17 47° ESE 05:38:53 10° NE
Hubble Space Telescope 3.0 05:32:15 11° SSW 05:34:44 17° S 05:37:26 10° SE
Cosmos 1441 Rocket 3.7 05:31:43 10° S 05:35:40 66° E 05:39:37 10° NNE
Cosmos 372 Rocket 3.8 05:31:51 10° SSW 05:36:54 68° WNW 05:42:01 10° NNE
Cosmos 1869 Rocket 4.3 05:36:18 10° NNW 05:40:09 30° W 05:44:01 10° SSW
Cosmos 1934 Rocket 4.4 05:38:11 10° SW 05:44:05 40° WNW 05:50:03 10° N
CENTAUR R/B 4.1 05:40:44 18° WNW 05:44:31 24° WSW 05:50:54 10° SSW
Cosmos 1707 Rocket 4.3 05:41:02 10° SW 05:45:00 31° WNW 05:49:01 10° NNW
Cosmos 1697 Rocket 3.6 05:43:48 19° W 05:46:24 27° WNW 05:51:09 10° N
SL-16 R/B 2.9 05:41:22 10° S 05:46:54 59° ESE 05:52:29 10° NNE
Okean O Rocket 3.5 05:46:13 10° NNW 05:47:37 13° NW 05:47:37 13° NW
Cosmos 2227 Rocket 4.0 05:52:00 12° WSW 05:52:00 12° WSW 05:52:47 10° SW
Cosmos 2123 Rocket 4.3 05:45:52 10° NNW 05:51:41 43° W 05:57:31 10° SSW
Lacrosse 5 rocket 1.4 05:50:28 16° NW 05:53:22 52° SW 05:57:22 10° SSE
OAO 3 Rocket 4.2 05:53:20 16° WSW 05:56:43 34° SSW 06:01:10 10° SE
SEDSat Delta rocket 4.2 05:57:57 11° WSW 06:01:53 31° S 06:05:38 10° ESE
Cosmos 2297 Rocket 3.9 06:04:25 11° W 06:04:25 11° W 06:05:57 10° WSW
Geosat 4.0 05:59:15 10° SSE 06:04:15 73° WSW 06:09:18 10° NNW
SKYMED 2 4.3 06:03:23 10° SSW 06:07:14 31° W 06:11:08 10° NNW
Meteor 1-20 Rocket 4.5 06:04:18 10° N 06:10:09 80° E 06:15:55 10° SSE
Cosmos 2242 Rocket 4.0 06:06:35 10° SSW 06:10:55 42° WNW 06:15:17 10° N
Cosmos 1269 Rocket 4.1 06:07:19 10° NNW 06:12:31 60° WSW 06:17:40 10° S
Cosmos 1606 2.8 06:09:46 10° S 06:13:36 84° E 06:17:25 10° N
BREEZE-M DEB (TANK) 3.9 06:14:20 10° NW 06:17:50 62° NE 06:30:13 10° ESE
Cosmos 1484 Rocket 2.8 06:17:57 10° N 06:21:57 80° WNW 06:25:57 10° SSW
Cosmos 405 4.0 06:19:26 10° NW 06:22:26 25° W 06:25:25 10° SSW
Cosmos 494 Rocket 4.1 06:18:23 10° NNW 06:23:32 81° ENE 06:28:38 10° SSE
